#timestamp,LO_Frequency,Hit,StdDev 
1585090815.1,286046997.4,P
1585090816.0,286046997.4,N
1585090835.8,286046991.9,N
1585090855.7,286046994.4,N
1585090875.5,286046992.5,N
1585090895.3,286046995.9,N
1585090915.2,286047001.6,N
1585090935.0,286047010.8,N
1585090935.9,286047010.8,N
1585090955.8,286047002.3,N
1585090975.6,286047011.9,N
1585090995.4,286047003.0,N
1585091015.3,286047010.7,N
1585091035.1,286047018.0,N
1585091055.8,286047019.2,N
1585091075.7,286047011.0,N
1585091095.5,286047015.9,N
1585091115.4,286047012.3,N
1585091135.2,286047015.7,N
1585091155.0,286047011.2,N
1585091155.9,286047011.2,N
1585091175.8,286047013.2,N
1585091195.6,286047006.6,N
1585091215.4,286047007.6,N
1585091235.3,286047001.3,N
1585091255.1,286047005.3,N
1585091275.9,286047005.5,N
1585091295.7,286047002.6,N
1585091315.5,286047004.8,N
1585091335.4,286047006.2,N
1585091355.2,286047005.6,N
1585091375.0,286046999.0,N
1585091375.9,286046999.0,N
1585091395.8,286047000.9,N
1585091415.6,286047005.3,N
1585091435.5,286047008.5,N
1585091455.3,286047003.8,N
1585091475.1,286047001.0,N
1585091495.9,286046999.5,N
1585091515.7,286047007.5,N
1585091535.5,286047009.7,N
1585091555.4,286047011.7,N
1585091575.2,286047010.5,N
1585091595.1,286047009.6,N
1585091596.0,286047009.6,N
1585091615.8,286047005.1,N
1585091635.6,286047009.3,N
1585091655.5,286047001.7,N
1585091675.3,286047012.4,N
1585091695.1,286047018.7,Y
1585091715.9,286047006.2,P
1585091735.7,286047012.3,P
1585091755.6,286047013.2,P
1585091775.4,286047009.1,N
1585091795.2,286047004.5,N
1585091815.1,286047005.4,N
1585091816.0,286047005.4,N
1585091835.8,286047005.3,N
1585091855.7,286047010.2,Y
1585091875.5,286047002.9,P
1585091895.3,286046994.8,N
1585091915.2,286046994.9,N
1585091935.9,286046991.8,N
1585091955.7,286046989.5,N
1585091975.6,286046993.0,N
1585091995.4,286046988.5,N
1585092015.3,286046987.4,N
1585092035.1,286046987.1,N
1585092036.0,286046987.1,N
1585092055.8,286046987.7,N
1585092075.7,286046985.5,N
1585092095.5,286046987.4,N
1585092115.3,286046984.9,N
1585092135.2,286046983.7,N
1585092155.0,286046980.9,Y
1585092155.9,286046980.9,P
1585092175.8,286046993.2,N
1585092195.6,286046988.0,N
1585092215.4,286046994.9,N
1585092235.3,286046996.4,N
1585092255.1,286046995.7,N
1585092275.9,286046994.2,N
1585092295.7,286046999.3,N
1585092315.5,286047005.6,N
1585092335.4,286047001.6,N
1585092355.2,286047004.9,N
1585092375.0,286047009.7,N
1585092375.9,286047009.7,N
1585092395.8,286047008.7,N
1585092415.6,286047015.9,N
1585092435.5,286047011.6,N
1585092455.3,286047019.9,N
1585092475.1,286047017.4,N
1585092495.9,286047018.2,N
1585092515.7,286047024.6,N
1585092535.5,286047017.0,N
1585092555.4,286047013.5,N
1585092575.2,286047007.9,N
1585092595.1,286047006.6,N
1585092596.0,286047006.6,N
1585092615.8,286047002.1,N
1585092635.6,286047006.0,N
1585092655.5,286047004.5,N
1585092675.3,286047001.6,N
1585092695.1,286047005.8,N
1585092715.9,286047006.0,N
1585092735.7,286047001.7,N
1585092755.6,286047007.6,N
1585092775.4,286047005.0,N
1585092795.2,286047004.7,N
1585092815.1,286047007.2,N
1585092816.0,286047007.2,N
1585092835.8,286047005.1,N
1585092855.6,286047003.3,N
1585092875.5,286047006.4,N
1585092895.3,286047008.1,N
1585092915.2,286047011.5,N
1585092935.9,286047013.1,N
1585092955.7,286047021.0,Y
1585092975.6,286047016.3,P
1585092995.4,286047014.4,P
1585093015.2,286047012.7,P
1585093035.1,286047016.4,Y
1585093036.0,286047016.4,P
1585093055.8,286047008.8,P
1585093075.7,286047010.2,P
1585093095.5,286047010.7,Y
1585093115.3,286047000.0,P
1585093135.2,286046999.8,N
1585093155.0,286047002.1,N
1585093155.9,286047002.1,N
1585093175.8,286046998.5,N
1585093195.6,286046998.3,N
1585093215.4,286047002.6,N
1585093235.3,286046998.5,N
1585093255.1,286046999.3,N
1585093275.8,286047002.2,N
1585093295.7,286047000.1,N
1585093315.5,286046999.8,N
1585093335.4,286047004.1,N
1585093355.2,286047000.5,N
1585093375.0,286047001.9,N
1585093375.9,286047001.9,N
1585093395.8,286047003.3,N
1585093415.6,286047000.3,N
1585093435.4,286047002.1,N
1585093455.3,286047001.7,N
1585093475.1,286046998.7,N
1585093495.9,286047001.4,N
1585093515.7,286047003.6,N
1585093535.5,286047006.5,N
1585093555.4,286047013.9,Y
1585093575.2,286047006.1,P
1585093595.1,286047007.0,P
1585093596.0,286047007.0,N
1585093615.8,286047010.0,Y
1585093635.6,286047007.3,P
1585093655.5,286047005.3,P
1585093675.3,286047017.6,P
1585093695.2,286047021.5,Y
1585093715.9,286047006.8,P
1585093735.7,286047009.3,P
1585093755.6,286047022.4,P
1585093775.4,286047017.4,N
1585093795.2,286047014.4,N
1585093815.1,286047012.6,N
1585093816.0,286047012.6,N
1585093835.8,286047021.1,Y
1585093855.7,286047016.4,P
1585093875.5,286047007.8,P
1585093895.3,286047001.9,N
1585093915.2,286047005.4,N
1585093935.0,286047003.3,N
1585093935.9,286047003.3,N
1585093955.8,286047006.6,N
1585093975.6,286047005.2,N
1585093995.5,286047004.2,N
1585094015.3,286047001.8,N
1585094035.1,286047008.6,N
1585094055.9,286047006.0,N
1585094075.7,286047002.5,N
1585094095.5,286047008.3,N
1585094115.4,286047019.0,Y
1585094135.2,286047012.0,P
1585094155.1,286047015.7,P
1585094156.0,286047015.7,P
1585094175.8,286047022.6,Y
1585094195.6,286047024.8,P
1585094215.5,286047018.0,N
1585094235.3,286047017.4,P
1585094255.2,286047019.5,Y
1585094275.9,286047002.1,P
1585094295.7,286047013.5,N
1585094315.6,286047013.2,N
1585094335.4,286047025.2,Y
1585094355.2,286047019.3,P
1585094375.1,286047029.0,P
1585094376.0,286047029.0,P
1585094395.8,286047027.9,Y
